TimeEST,TemperatureF,Dew PointF,Humidity,Sea Level PressureIn,VisibilityMPH,Wind Direction,Wind SpeedMPH,Gust SpeedMPH,PrecipitationIn,Events,Conditions,WindDirDegrees,DateUTC
12:22 AM,33.8,32.0,93,29.60,4.0,NNW,5.8,-,0.01,Snow,Light Snow,330,2013-02-28 05:22:00
12:32 AM,33.8,32.0,93,29.59,6.0,NW,5.8,-,0.01,Snow,Light Snow,320,2013-02-28 05:32:00
12:52 AM,33.1,32.0,96,29.61,10.0,NW,6.9,-,0.01,,Overcast,320,2013-02-28 05:52:00
1:52 AM,33.1,32.0,96,29.61,3.0,WNW,3.5,-,0.00,Snow,Light Snow,300,2013-02-28 06:52:00
2:06 AM,33.8,32.0,93,29.59,5.0,NW,3.5,-,0.00,Snow,Light Snow,310,2013-02-28 07:06:00
2:48 AM,32.0,30.2,93,29.57,9.0,Calm,Calm,-,0.00,,Scattered Clouds,0,2013-02-28 07:48:00
3:07 AM,32.0,30.2,93,29.59,10.0,WNW,3.5,-,N/A,,Mostly Cloudy,300,2013-02-28 08:07:00
3:35 AM,32.0,30.2,93,29.58,10.0,Calm,Calm,-,N/A,,Overcast,0,2013-02-28 08:35:00
3:52 AM,32.0,30.9,96,29.59,10.0,Calm,Calm,-,N/A,,Mostly Cloudy,0,2013-02-28 08:52:00
4:01 AM,30.2,30.2,100,29.58,10.0,Calm,Calm,-,N/A,,Scattered Clouds,0,2013-02-28 09:01:00
4:32 AM,30.2,30.2,100,29.58,10.0,Calm,Calm,-,N/A,,Mostly Cloudy,0,2013-02-28 09:32:00
4:52 AM,30.9,30.0,96,29.61,10.0,Calm,Calm,-,N/A,,Overcast,0,2013-02-28 09:52:00
5:52 AM,32.0,30.9,96,29.63,10.0,Calm,Calm,-,N/A,,Overcast,0,2013-02-28 10:52:00
6:52 AM,30.9,30.9,100,29.62,9.0,Calm,Calm,-,N/A,,Overcast,0,2013-02-28 11:52:00
7:52 AM,32.0,30.0,92,29.62,10.0,Calm,Calm,-,N/A,,Overcast,0,2013-02-28 12:52:00
8:52 AM,32.0,30.0,92,29.63,10.0,SSW,3.5,-,N/A,,Overcast,200,2013-02-28 13:52:00
9:52 AM,32.0,30.9,96,29.63,10.0,SSW,3.5,-,N/A,,Overcast,200,2013-02-28 14:52:00
10:52 AM,33.1,30.9,92,29.62,9.0,Calm,Calm,-,0.00,,Overcast,0,2013-02-28 15:52:00
11:29 AM,33.8,33.8,100,29.60,2.5,Calm,Calm,-,0.01,Snow,Light Snow,0,2013-02-28 16:29:00
11:45 AM,35.6,33.8,93,29.59,2.5,Calm,Calm,-,0.01,Snow,Light Snow,0,2013-02-28 16:45:00
11:52 AM,36.0,34.0,93,29.61,3.0,Calm,Calm,-,0.01,Snow,Light Snow,0,2013-02-28 16:52:00
12:07 PM,35.6,33.8,93,29.58,9.0,Calm,Calm,-,0.00,,Overcast,0,2013-02-28 17:07:00
12:15 PM,35.6,33.8,93,29.58,10.0,Calm,Calm,-,0.00,,Overcast,0,2013-02-28 17:15:00
12:52 PM,37.9,34.0,86,29.58,10.0,Calm,Calm,-,0.00,,Overcast,0,2013-02-28 17:52:00
1:05 PM,37.4,33.8,87,29.56,10.0,Calm,Calm,-,N/A,,Overcast,0,2013-02-28 18:05:00
1:52 PM,37.9,34.0,86,29.57,10.0,Calm,Calm,-,N/A,,Overcast,0,2013-02-28 18:52:00
2:45 PM,39.2,35.6,87,29.53,10.0,Calm,Calm,-,N/A,,Overcast,0,2013-02-28 19:45:00
2:52 PM,39.0,35.1,86,29.55,10.0,Calm,Calm,-,N/A,,Overcast,0,2013-02-28 19:52:00
3:52 PM,39.0,34.0,82,29.56,10.0,WSW,3.5,-,N/A,,Overcast,250,2013-02-28 20:52:00
4:52 PM,37.0,34.0,89,29.56,10.0,NNW,3.5,-,N/A,,Overcast,340,2013-02-28 21:52:00
5:06 PM,37.4,33.8,87,29.54,10.0,Calm,Calm,-,N/A,,Overcast,0,2013-02-28 22:06:00
5:52 PM,36.0,34.0,93,29.57,10.0,Calm,Calm,-,N/A,,Overcast,0,2013-02-28 22:52:00
6:52 PM,35.1,33.1,92,29.57,10.0,NW,4.6,-,N/A,,Overcast,310,2013-02-28 23:52:00
7:52 PM,34.0,33.1,96,29.56,10.0,Calm,Calm,-,N/A,,Partly Cloudy,0,2013-03-01 00:52:00
8:52 PM,34.0,32.0,92,29.56,10.0,NNW,4.6,-,N/A,,Scattered Clouds,330,2013-03-01 01:52:00
9:40 PM,28.4,28.4,100,29.55,1.8,Calm,Calm,-,N/A,,Clear,0,2013-03-01 02:40:00
9:44 PM,28.4,28.4,100,29.55,1.0,Calm,Calm,-,N/A,,Clear,0,2013-03-01 02:44:00
9:52 PM,28.9,28.0,96,29.57,1.2,Calm,Calm,-,N/A,,Partly Cloudy,0,2013-03-01 02:52:00
10:00 PM,30.2,28.4,93,29.54,1.8,Calm,Calm,-,N/A,,Partly Cloudy,0,2013-03-01 03:00:00
10:08 PM,28.4,28.4,100,29.54,2.5,Calm,Calm,-,N/A,,Partly Cloudy,0,2013-03-01 03:08:00
10:17 PM,28.4,28.4,100,29.54,3.0,Calm,Calm,-,N/A,,Partly Cloudy,0,2013-03-01 03:17:00
10:52 PM,30.0,28.9,96,29.56,4.0,Calm,Calm,-,N/A,,Overcast,0,2013-03-01 03:52:00
11:50 PM,30.2,30.2,100,29.54,4.0,Calm,Calm,-,N/A,,Overcast,0,2013-03-01 04:50:00
11:52 PM,30.9,30.0,96,29.56,4.0,Calm,Calm,-,N/A,,Overcast,0,2013-03-01 04:52:00